JBU1801 KFLL-KBNA

Flight info

Callsign JBU1801
Flight time N/A
Altitude 38000
Route HROCK2 KPASA Q118 THRSR SWFFT3
Aircraft A320/M-SDE3FGHIRWY/LB1

Departure

Time 2026-05-04 17:53
Airport Fort Lauderdale Hollywood International Airport (KFLL)

Arrival

Time N/A
Airport Nashville International Airport (KBNA)
Time Latitude Longitude Altitude Speed Heading
2026-05-04 17:33 26.06884 -80.14431 16 ft 0 kts 360°
2026-05-04 17:43 26.06877 -80.14431 16 ft 4 kts
2026-05-04 17:44 26.06859 -80.14432 18 ft 4 kts
2026-05-04 17:44 26.06836 -80.14433 16 ft 0 kts 26°
2026-05-04 17:46 26.06837 -80.14433 16 ft 0 kts 26°
2026-05-04 17:46 26.06840 -80.14431 16 ft 0 kts 25°
2026-05-04 17:46 26.06841 -80.14429 16 ft 0 kts 41°
2026-05-04 17:47 26.06840 -80.14427 16 ft 2 kts 63°
2026-05-04 17:47 26.06820 -80.14419 16 ft 2 kts 234°
2026-05-04 17:47 26.06821 -80.14420 16 ft 0 kts 248°
2026-05-04 17:48 26.06821 -80.14421 16 ft 0 kts 248°
2026-05-04 17:48 26.06819 -80.14430 16 ft 6 kts 258°
2026-05-04 17:48 26.06816 -80.14498 16 ft 10 kts 259°
2026-05-04 17:48 26.06783 -80.14576 17 ft 12 kts 242°
2026-05-04 17:49 26.06766 -80.14677 16 ft 15 kts 269°
2026-05-04 17:49 26.06767 -80.14800 16 ft 17 kts 271°
2026-05-04 17:49 26.06769 -80.14944 16 ft 20 kts 274°
2026-05-04 17:49 26.06768 -80.15000 16 ft 5 kts 271°
2026-05-04 17:50 26.06768 -80.15050 16 ft 8 kts 271°
2026-05-04 17:50 26.06768 -80.15119 16 ft 10 kts 269°
2026-05-04 17:50 26.06768 -80.15206 16 ft 13 kts 272°
2026-05-04 17:50 26.06767 -80.15313 16 ft 15 kts 265°
2026-05-04 17:51 26.06709 -80.15414 16 ft 17 kts 240°
2026-05-04 17:51 26.06697 -80.15547 16 ft 19 kts 269°
2026-05-04 17:51 26.06698 -80.15703 16 ft 21 kts 270°
2026-05-04 17:51 26.06670 -80.15818 17 ft 14 kts 203°
2026-05-04 17:52 26.06587 -80.15790 18 ft 11 kts 113°
2026-05-04 17:52 26.06587 -80.15777 19 ft 1 kts 84°
2026-05-04 17:52 26.06589 -80.15736 20 ft 8 kts 90°
2026-05-04 17:52 26.06588 -80.15609 23 ft 47 kts 90°
2026-05-04 17:53 26.06594 -80.14887 26 ft 134 kts 90°
2026-05-04 17:53 26.06574 -80.13648 251 ft 181 kts 89°
2026-05-04 17:53 26.06589 -80.12135 912 ft 201 kts 79°
2026-05-04 17:53 26.07117 -80.10670 1947 ft 216 kts 62°
2026-05-04 17:54 26.07868 -80.09110 2825 ft 241 kts 60°
2026-05-04 17:54 26.08809 -80.07502 3882 ft 255 kts 43°
2026-05-04 17:54 26.10355 -80.06478 4883 ft 264 kts 22°
2026-05-04 17:54 26.12091 -80.05733 5796 ft 270 kts 18°
2026-05-04 17:55 26.13874 -80.05096 6680 ft 275 kts 10°
2026-05-04 17:55 26.15788 -80.04964 7501 ft 279 kts 352°
2026-05-04 17:55 26.17691 -80.05437 8292 ft 283 kts 338°
2026-05-04 17:55 26.19558 -80.06197 9089 ft 288 kts 336°
2026-05-04 17:56 26.21308 -80.07279 9877 ft 289 kts 320°
2026-05-04 17:56 26.22730 -80.08865 10488 ft 297 kts 303°
2026-05-04 17:56 26.23734 -80.10957 10717 ft 317 kts 289°
2026-05-04 17:56 26.24565 -80.13332 10885 ft 341 kts 289°
2026-05-04 17:57 26.25439 -80.15875 11014 ft 362 kts 287°
2026-05-04 17:57 26.26210 -80.18631 11192 ft 380 kts 285°
2026-05-04 17:57 26.26972 -80.21480 11713 ft 387 kts 285°
2026-05-04 17:57 26.27732 -80.24369 12378 ft 390 kts 284°
2026-05-04 17:58 26.28495 -80.27275 13078 ft 391 kts 284°
2026-05-04 17:58 26.29263 -80.30191 13757 ft 393 kts 284°
2026-05-04 17:58 26.30040 -80.33123 14384 ft 396 kts 284°
2026-05-04 17:58 26.30821 -80.36075 14980 ft 398 kts 284°
2026-05-04 17:59 26.31609 -80.39047 15562 ft 401 kts 284°
2026-05-04 17:59 26.32399 -80.42035 16119 ft 403 kts 284°
2026-05-04 17:59 26.33990 -80.48070 17191 ft 408 kts 284°
2026-05-04 18:00 26.34794 -80.51109 17709 ft 410 kts 284°
2026-05-04 18:00 26.35602 -80.54170 18209 ft 412 kts 284°
2026-05-04 18:00 26.36412 -80.57247 18683 ft 415 kts 284°
2026-05-04 18:00 26.37231 -80.60354 19166 ft 417 kts 284°
2026-05-04 18:01 26.38041 -80.63429 19636 ft 419 kts 284°
2026-05-04 18:01 26.38864 -80.66560 20091 ft 422 kts 284°
2026-05-04 18:01 26.39798 -80.69718 20523 ft 426 kts 290°
2026-05-04 18:02 26.43000 -80.75296 21313 ft 438 kts 309°
2026-05-04 18:02 26.45079 -80.77797 21666 ft 440 kts 309°
2026-05-04 18:02 26.47165 -80.80306 22019 ft 442 kts 309°
2026-05-04 18:02 26.49259 -80.82831 22363 ft 444 kts 309°
2026-05-04 18:03 26.51447 -80.85277 22690 ft 449 kts 315°
2026-05-04 18:03 26.53873 -80.87497 23016 ft 452 kts 317°
2026-05-04 18:03 26.56317 -80.89713 23355 ft 453 kts 317°
2026-05-04 18:03 26.58772 -80.91940 23698 ft 455 kts 317°
2026-05-04 18:04 26.61234 -80.94177 24033 ft 457 kts 317°
2026-05-04 18:04 26.63705 -80.96421 24407 ft 458 kts 317°
2026-05-04 18:04 26.68611 -81.00885 25482 ft 452 kts 316°
2026-05-04 18:05 26.71041 -81.03099 26037 ft 449 kts 316°
2026-05-04 18:05 26.73453 -81.05298 26614 ft 446 kts 316°
2026-05-04 18:05 26.75852 -81.07483 27199 ft 442 kts 316°
2026-05-04 18:05 26.78226 -81.09645 27798 ft 439 kts 316°
2026-05-04 18:06 26.82886 -81.13897 28995 ft 431 kts 315°
2026-05-04 18:06 26.85196 -81.16011 29589 ft 427 kts 315°
2026-05-04 18:06 26.87486 -81.18105 30188 ft 423 kts 315°
2026-05-04 18:07 26.89760 -81.20185 30759 ft 420 kts 315°
2026-05-04 18:07 26.92016 -81.22253 31258 ft 419 kts 315°
2026-05-04 18:07 26.94268 -81.24320 31715 ft 418 kts 315°
2026-05-04 18:07 26.96516 -81.26384 32158 ft 417 kts 315°
2026-05-04 18:08 26.98760 -81.28445 32589 ft 417 kts 314°
2026-05-04 18:08 27.01004 -81.30505 33046 ft 416 kts 314°
2026-05-04 18:08 27.03241 -81.32556 33487 ft 416 kts 315°
2026-05-04 18:08 27.05631 -81.34422 33919 ft 422 kts 323°
2026-05-04 18:09 27.10749 -81.37663 34775 ft 422 kts 323°
2026-05-04 18:09 27.15858 -81.40906 35572 ft 422 kts 323°
2026-05-04 18:10 27.18382 -81.42514 35940 ft 422 kts 322°
2026-05-04 18:10 27.20935 -81.44139 36331 ft 421 kts 322°
2026-05-04 18:10 27.23488 -81.45763 36649 ft 422 kts 322°
2026-05-04 18:10 27.26037 -81.47387 36986 ft 421 kts 322°
2026-05-04 18:11 27.28582 -81.49008 37347 ft 420 kts 322°
2026-05-04 18:11 27.31125 -81.50626 37709 ft 418 kts 322°
2026-05-04 18:11 27.33671 -81.52208 38015 ft 421 kts 326°
2026-05-04 18:11 27.36399 -81.53511 38089 ft 428 kts 329°
2026-05-04 18:12 27.41933 -81.56025 38099 ft 429 kts 329°
2026-05-04 18:12 27.47462 -81.58542 38099 ft 428 kts 329°
2026-05-04 18:13 27.52982 -81.61060 38092 ft 428 kts 329°
2026-05-04 18:14 27.61220 -81.64823 38091 ft 427 kts 330°
2026-05-04 18:14 27.66736 -81.67340 38096 ft 428 kts 330°
2026-05-04 18:15 27.77742 -81.72382 38082 ft 429 kts 329°
2026-05-04 18:16 27.83303 -81.74942 38076 ft 433 kts 329°
2026-05-04 18:16 27.88898 -81.77506 38080 ft 435 kts 329°
2026-05-04 18:17 27.97332 -81.81392 38098 ft 438 kts 329°
2026-05-04 18:18 28.05808 -81.85297 38112 ft 439 kts 330°
2026-05-04 18:18 28.11464 -81.87899 38119 ft 438 kts 330°
2026-05-04 18:19 28.19617 -81.92319 38123 ft 424 kts 317°
2026-05-04 18:19 28.24461 -81.96174 38124 ft 425 kts 317°
2026-05-04 18:20 28.29315 -82.00003 38125 ft 425 kts 317°
2026-05-04 18:20 28.34169 -82.03831 38126 ft 424 kts 317°
2026-05-04 18:21 28.39011 -82.07662 38127 ft 424 kts 317°
2026-05-04 18:21 28.43839 -82.11505 38126 ft 423 kts 317°
2026-05-04 18:22 28.48628 -82.15317 38127 ft 423 kts 317°
2026-05-04 18:22 28.53443 -82.19150 38128 ft 422 kts 317°
2026-05-04 18:23 28.58259 -82.22983 38129 ft 422 kts 317°
2026-05-04 18:23 28.63056 -82.26814 38129 ft 421 kts 317°
2026-05-04 18:24 28.67859 -82.30652 38129 ft 421 kts 317°
2026-05-04 18:24 28.72624 -82.34456 38129 ft 421 kts 317°
2026-05-04 18:25 28.77417 -82.38280 38130 ft 420 kts 318°
2026-05-04 18:25 28.82190 -82.42110 38132 ft 419 kts 317°
2026-05-04 18:26 28.86952 -82.45937 38132 ft 418 kts 317°
2026-05-04 18:26 28.91705 -82.49761 38130 ft 417 kts 317°
2026-05-04 18:27 28.96452 -82.53580 38129 ft 417 kts 317°
2026-05-04 18:27 29.01198 -82.57391 38133 ft 417 kts 317°
2026-05-04 18:28 29.05928 -82.61199 38130 ft 416 kts 317°
2026-05-04 18:28 29.10650 -82.65009 38128 ft 415 kts 317°
2026-05-04 18:29 29.15359 -82.68824 38127 ft 414 kts 317°
2026-05-04 18:29 29.20065 -82.72630 38125 ft 414 kts 317°
2026-05-04 18:30 29.27091 -82.78311 38124 ft 414 kts 317°
2026-05-04 18:31 29.31791 -82.82116 38125 ft 413 kts 317°
2026-05-04 18:31 29.36477 -82.85920 38122 ft 413 kts 317°
2026-05-04 18:32 29.41167 -82.89729 38123 ft 412 kts 317°
2026-05-04 18:32 29.45055 -82.92890 38123 ft 412 kts 317°
2026-05-04 18:33 29.49762 -82.96731 38121 ft 412 kts 317°
2026-05-04 18:33 29.54872 -82.99816 38121 ft 424 kts 329°
2026-05-04 18:34 29.60329 -83.02401 38121 ft 424 kts 329°
2026-05-04 18:34 29.65773 -83.04976 38119 ft 423 kts 329°
2026-05-04 18:35 29.71203 -83.07563 38116 ft 422 kts 329°
2026-05-04 18:35 29.76622 -83.10166 38115 ft 422 kts 329°
2026-05-04 18:36 29.82034 -83.12770 38114 ft 421 kts 329°
2026-05-04 18:36 29.87454 -83.15359 38116 ft 422 kts 329°
2026-05-04 18:37 29.92872 -83.17953 38114 ft 421 kts 329°
2026-05-04 18:37 29.98284 -83.20546 38121 ft 421 kts 329°
2026-05-04 18:38 30.03661 -83.23122 38126 ft 420 kts 329°
2026-05-04 18:38 30.09046 -83.25712 38128 ft 419 kts 329°
2026-05-04 18:39 30.14419 -83.28305 38131 ft 418 kts 329°
2026-05-04 18:39 30.19781 -83.30895 38125 ft 417 kts 329°
2026-05-04 18:40 30.25131 -83.33477 38125 ft 416 kts 329°
2026-05-04 18:40 30.30477 -83.36056 38123 ft 416 kts 329°
2026-05-04 18:41 30.35824 -83.38643 38123 ft 416 kts 329°
2026-05-04 18:41 30.41174 -83.41230 38127 ft 416 kts 329°
2026-05-04 18:42 30.46514 -83.43821 38131 ft 416 kts 329°
2026-05-04 18:42 30.51854 -83.46419 38131 ft 416 kts 329°
2026-05-04 18:43 30.57200 -83.49013 38133 ft 416 kts 329°
2026-05-04 18:43 30.62545 -83.51604 38142 ft 416 kts 329°
2026-05-04 18:44 30.67849 -83.54183 38136 ft 416 kts 329°
2026-05-04 18:44 30.73180 -83.56790 38144 ft 415 kts 329°
2026-05-04 18:45 30.78509 -83.59392 38138 ft 415 kts 329°
2026-05-04 18:45 30.83831 -83.61993 38138 ft 415 kts 329°
2026-05-04 18:46 30.89151 -83.64593 38134 ft 414 kts 329°
2026-05-04 18:46 30.94464 -83.67194 38133 ft 413 kts 329°
2026-05-04 18:47 30.99755 -83.69793 38127 ft 413 kts 328°
2026-05-04 18:47 31.05046 -83.72389 38129 ft 412 kts 329°
2026-05-04 18:48 31.10341 -83.74981 38133 ft 413 kts 329°
2026-05-04 18:48 31.15631 -83.77580 38134 ft 413 kts 328°
2026-05-04 18:49 31.20913 -83.80187 38133 ft 412 kts 328°
2026-05-04 18:49 31.26191 -83.82794 38143 ft 411 kts 328°
2026-05-04 18:50 31.31432 -83.85379 38132 ft 411 kts 328°
2026-05-04 18:50 31.36700 -83.87990 38132 ft 411 kts 328°
2026-05-04 18:51 31.41969 -83.90604 38142 ft 411 kts 328°
2026-05-04 18:51 31.47237 -83.93219 38142 ft 411 kts 328°
2026-05-04 18:52 31.52568 -83.95708 38139 ft 418 kts 335°
2026-05-04 18:52 31.58341 -83.97077 38149 ft 424 kts 340°
2026-05-04 18:53 31.64141 -83.98358 38144 ft 424 kts 339°
2026-05-04 18:53 31.69935 -83.99652 38143 ft 424 kts 339°
2026-05-04 18:54 31.75728 -84.00939 38144 ft 423 kts 339°
2026-05-04 18:54 31.81509 -84.02224 38134 ft 423 kts 339°
2026-05-04 18:55 31.87262 -84.03504 38132 ft 423 kts 339°
2026-05-04 18:55 31.95936 -84.05449 38122 ft 423 kts 339°
2026-05-04 18:56 32.01717 -84.06745 38117 ft 423 kts 339°
2026-05-04 18:56 32.07509 -84.08041 38112 ft 423 kts 339°
2026-05-04 18:57 32.13290 -84.09338 38106 ft 423 kts 339°
2026-05-04 18:57 32.19072 -84.10628 38103 ft 423 kts 339°
2026-05-04 18:58 32.24865 -84.11932 38103 ft 423 kts 339°
2026-05-04 18:58 32.30646 -84.13247 38106 ft 423 kts 339°
2026-05-04 18:59 32.36424 -84.14555 38107 ft 423 kts 340°
2026-05-04 18:59 32.42211 -84.15857 38110 ft 423 kts 340°
2026-05-04 19:00 32.48004 -84.17159 38111 ft 424 kts 340°
2026-05-04 19:00 32.53802 -84.18467 38114 ft 424 kts 340°
2026-05-04 19:01 32.59596 -84.19782 38120 ft 425 kts 340°
2026-05-04 19:01 32.65408 -84.21103 38125 ft 425 kts 340°
2026-05-04 19:02 32.71181 -84.22422 38130 ft 425 kts 340°
2026-05-04 19:02 32.77001 -84.23745 38133 ft 426 kts 340°
2026-05-04 19:03 32.82821 -84.25071 38134 ft 426 kts 340°
2026-05-04 19:03 32.88643 -84.26399 38132 ft 426 kts 340°
2026-05-04 19:04 32.94479 -84.27726 38131 ft 427 kts 340°
2026-05-04 19:04 33.00306 -84.29063 38130 ft 427 kts 341°
2026-05-04 19:05 33.06146 -84.30408 38131 ft 428 kts 341°
2026-05-04 19:05 33.11997 -84.31749 38129 ft 428 kts 341°
2026-05-04 19:06 33.17843 -84.33090 38126 ft 429 kts 341°
2026-05-04 19:06 33.23710 -84.34434 38120 ft 429 kts 341°
2026-05-04 19:07 33.29539 -84.35778 38116 ft 430 kts 341°
2026-05-04 19:07 33.35414 -84.37133 38119 ft 430 kts 341°
2026-05-04 19:08 33.41291 -84.38494 38127 ft 430 kts 341°
2026-05-04 19:08 33.47171 -84.39854 38130 ft 431 kts 341°
2026-05-04 19:09 33.53077 -84.41225 38129 ft 432 kts 341°
2026-05-04 19:09 33.58984 -84.42597 38122 ft 432 kts 341°
2026-05-04 19:10 33.64765 -84.44347 38114 ft 422 kts 332°
2026-05-04 19:10 33.70241 -84.46908 38110 ft 422 kts 332°
2026-05-04 19:11 33.75717 -84.49473 38103 ft 422 kts 332°
2026-05-04 19:11 33.81191 -84.52036 38094 ft 422 kts 332°
2026-05-04 19:12 33.89414 -84.55895 38089 ft 423 kts 332°
2026-05-04 19:13 33.94865 -84.58460 38096 ft 423 kts 332°
2026-05-04 19:13 34.00198 -84.61342 38098 ft 418 kts 327°
2026-05-04 19:14 34.05391 -84.64507 38092 ft 418 kts 327°
2026-05-04 19:14 34.10585 -84.67685 38092 ft 419 kts 327°
2026-05-04 19:15 34.15797 -84.70861 38089 ft 420 kts 327°
2026-05-04 19:15 34.21016 -84.74046 38093 ft 420 kts 327°
2026-05-04 19:16 34.26227 -84.77239 38096 ft 420 kts 327°
2026-05-04 19:16 34.31437 -84.80445 38092 ft 420 kts 327°
2026-05-04 19:17 34.36654 -84.83647 38090 ft 420 kts 327°
2026-05-04 19:17 34.41855 -84.86839 38086 ft 420 kts 327°
2026-05-04 19:18 34.46188 -84.89496 38084 ft 420 kts 327°
2026-05-04 19:18 34.52240 -84.93219 38081 ft 419 kts 327°
2026-05-04 19:19 34.57432 -84.96441 38079 ft 419 kts 327°
2026-05-04 19:19 34.61745 -84.99123 38084 ft 419 kts 327°
2026-05-04 19:20 34.66830 -85.02539 38079 ft 415 kts 322°
2026-05-04 19:20 34.71705 -85.06297 38078 ft 415 kts 322°
2026-05-04 19:21 34.76568 -85.10059 38077 ft 415 kts 322°
2026-05-04 19:21 34.81436 -85.13824 38074 ft 414 kts 322°
2026-05-04 19:22 34.86296 -85.17598 38070 ft 414 kts 322°
2026-05-04 19:22 34.91160 -85.21378 38068 ft 414 kts 322°
2026-05-04 19:23 34.96021 -85.25152 37918 ft 414 kts 322°
2026-05-04 19:23 34.98442 -85.27033 36979 ft 412 kts 322°
2026-05-04 19:23 35.00866 -85.28920 35742 ft 415 kts 322°
2026-05-04 19:23 35.03307 -85.30823 34403 ft 418 kts 322°
2026-05-04 19:24 35.05769 -85.32746 32913 ft 423 kts 322°
2026-05-04 19:24 35.08258 -85.34694 31288 ft 429 kts 322°
2026-05-04 19:24 35.10763 -85.36652 30214 ft 422 kts 323°
2026-05-04 19:24 35.13212 -85.38554 29218 ft 412 kts 323°
2026-05-04 19:25 35.15580 -85.40555 28455 ft 420 kts 317°
2026-05-04 19:25 35.17743 -85.43002 28143 ft 428 kts 310°
2026-05-04 19:25 35.19804 -85.45638 27105 ft 430 kts 310°
2026-05-04 19:25 35.21869 -85.48257 26008 ft 435 kts 311°
2026-05-04 19:26 35.23981 -85.50937 25691 ft 441 kts 311°
2026-05-04 19:26 35.26121 -85.53658 25129 ft 445 kts 311°
2026-05-04 19:26 35.28270 -85.56399 24506 ft 447 kts 311°
2026-05-04 19:26 35.30414 -85.59141 23888 ft 445 kts 311°
2026-05-04 19:27 35.32547 -85.61872 23276 ft 442 kts 311°
2026-05-04 19:27 35.34662 -85.64583 22679 ft 438 kts 311°
2026-05-04 19:27 35.36760 -85.67270 22081 ft 435 kts 311°
2026-05-04 19:27 35.38843 -85.69939 21483 ft 431 kts 311°
2026-05-04 19:28 35.40909 -85.72582 20896 ft 428 kts 311°
2026-05-04 19:28 35.42957 -85.75207 20318 ft 425 kts 311°
2026-05-04 19:28 35.44984 -85.77814 19733 ft 418 kts 311°
2026-05-04 19:28 35.46939 -85.80332 19558 ft 397 kts 311°
2026-05-04 19:29 35.48798 -85.82720 19437 ft 378 kts 311°
2026-05-04 19:29 35.50575 -85.85002 19311 ft 362 kts 311°
2026-05-04 19:29 35.52277 -85.87191 19135 ft 348 kts 311°
2026-05-04 19:29 35.53924 -85.89313 19009 ft 342 kts 311°
2026-05-04 19:30 35.55560 -85.91424 19011 ft 341 kts 311°
2026-05-04 19:30 35.57177 -85.93552 19008 ft 341 kts 310°
2026-05-04 19:30 35.58779 -85.95704 18993 ft 341 kts 310°
2026-05-04 19:30 35.60369 -85.97852 18445 ft 340 kts 310°
2026-05-04 19:31 35.61959 -86.00003 17844 ft 339 kts 310°
2026-05-04 19:31 35.63546 -86.02141 17286 ft 337 kts 310°
2026-05-04 19:31 35.65123 -86.04252 16897 ft 334 kts 310°
2026-05-04 19:31 35.66697 -86.06357 16572 ft 333 kts 310°
2026-05-04 19:32 35.68264 -86.08458 16233 ft 333 kts 309°
2026-05-04 19:32 35.69826 -86.10555 15994 ft 332 kts 309°
2026-05-04 19:32 35.71346 -86.12694 15993 ft 331 kts 304°
2026-05-04 19:32 35.72694 -86.14955 16008 ft 332 kts 304°
2026-05-04 19:33 35.74062 -86.17241 15994 ft 332 kts 304°
2026-05-04 19:33 35.75435 -86.19522 15666 ft 331 kts 304°
2026-05-04 19:33 35.76808 -86.21808 15049 ft 331 kts 303°
2026-05-04 19:33 35.78180 -86.24085 14449 ft 331 kts 303°
2026-05-04 19:34 35.79552 -86.26361 13889 ft 330 kts 303°
2026-05-04 19:34 35.80913 -86.28634 13331 ft 329 kts 303°
2026-05-04 19:34 35.82262 -86.30888 12926 ft 325 kts 303°
2026-05-04 19:34 35.83604 -86.33134 12609 ft 325 kts 302°
2026-05-04 19:35 35.84944 -86.35373 12274 ft 324 kts 302°
2026-05-04 19:35 35.86283 -86.37608 11945 ft 325 kts 302°
2026-05-04 19:35 35.87623 -86.39845 11623 ft 323 kts 302°
2026-05-04 19:35 35.88956 -86.42072 11312 ft 323 kts 302°
2026-05-04 19:36 35.90274 -86.44283 11079 ft 315 kts 302°
2026-05-04 19:36 35.91548 -86.46420 10953 ft 303 kts 302°
2026-05-04 19:36 35.92776 -86.48479 10798 ft 294 kts 302°
2026-05-04 19:36 35.93973 -86.50484 10652 ft 286 kts 302°
2026-05-04 19:37 35.95160 -86.52474 10318 ft 290 kts 302°
2026-05-04 19:37 35.96353 -86.54478 10028 ft 287 kts 302°
2026-05-04 19:37 35.97522 -86.56440 9933 ft 280 kts 302°
2026-05-04 19:37 35.98801 -86.58206 9832 ft 275 kts 319°
2026-05-04 19:38 36.00497 -86.59269 9718 ft 277 kts 341°
2026-05-04 19:38 36.02427 -86.59424 9564 ft 283 kts
2026-05-04 19:38 36.04364 -86.58774 9137 ft 290 kts 16°
2026-05-04 19:38 36.06268 -86.57993 8894 ft 287 kts 16°
2026-05-04 19:39 36.08180 -86.57207 8330 ft 296 kts 16°
2026-05-04 19:39 36.10148 -86.56431 8051 ft 293 kts 11°
2026-05-04 19:39 36.12130 -86.56084 7907 ft 284 kts
2026-05-04 19:39 36.14075 -86.55909 7719 ft 278 kts 358°
2026-05-04 19:40 36.15987 -86.55894 7561 ft 270 kts 356°
2026-05-04 19:40 36.17825 -86.55930 7496 ft 259 kts 355°
2026-05-04 19:40 36.19590 -86.55983 7437 ft 248 kts 355°
2026-05-04 19:40 36.21272 -86.56034 7395 ft 236 kts 355°
2026-05-04 19:41 36.22875 -86.56076 7359 ft 223 kts 354°
2026-05-04 19:41 36.24403 -86.56114 7329 ft 214 kts 354°
2026-05-04 19:41 36.25834 -86.56147 7299 ft 198 kts 354°
2026-05-04 19:41 36.27161 -86.56179 7256 ft 184 kts 354°
2026-05-04 19:42 36.28397 -86.56206 7152 ft 173 kts 353°
2026-05-04 19:42 36.29575 -86.56233 6978 ft 170 kts 353°
2026-05-04 19:42 36.30774 -86.56265 6751 ft 171 kts 353°
2026-05-04 19:42 36.31952 -86.56298 6528 ft 173 kts 354°
2026-05-04 19:43 36.33163 -86.56328 6290 ft 176 kts 353°
2026-05-04 19:43 36.34404 -86.56359 6036 ft 180 kts 354°
2026-05-04 19:43 36.35682 -86.56389 5772 ft 185 kts 353°
2026-05-04 19:43 36.36962 -86.56418 5515 ft 183 kts 354°
2026-05-04 19:44 36.38175 -86.56673 5350 ft 169 kts 320°
2026-05-04 19:44 36.38711 -86.57755 5299 ft 141 kts 262°
2026-05-04 19:44 36.38203 -86.58684 5262 ft 141 kts 201°
2026-05-04 19:44 36.37207 -86.58747 5250 ft 146 kts 182°
2026-05-04 19:45 36.36192 -86.58684 5141 ft 145 kts 182°
2026-05-04 19:45 36.35181 -86.58619 4995 ft 145 kts 182°
2026-05-04 19:45 36.34166 -86.58557 4830 ft 147 kts 182°
2026-05-04 19:45 36.33143 -86.58494 4634 ft 147 kts 182°
2026-05-04 19:46 36.32125 -86.58450 4450 ft 145 kts 189°
2026-05-04 19:46 36.31178 -86.58788 4269 ft 141 kts 202°
2026-05-04 19:46 36.30235 -86.59166 4044 ft 144 kts 201°
2026-05-04 19:46 36.29274 -86.59546 3824 ft 146 kts 201°
2026-05-04 19:47 36.28299 -86.59935 3618 ft 148 kts 201°
2026-05-04 19:47 36.27323 -86.60327 3413 ft 146 kts 201°
2026-05-04 19:47 36.26353 -86.60716 3214 ft 147 kts 200°
2026-05-04 19:47 36.25376 -86.61109 3034 ft 148 kts 200°
2026-05-04 19:48 36.24411 -86.61495 2819 ft 142 kts 200°
2026-05-04 19:48 36.23471 -86.61874 2635 ft 141 kts 200°
2026-05-04 19:48 36.22549 -86.62243 2461 ft 138 kts 200°
2026-05-04 19:48 36.21641 -86.62608 2301 ft 138 kts 200°
2026-05-04 19:49 36.20736 -86.62971 2099 ft 137 kts 200°
2026-05-04 19:49 36.19824 -86.63339 1918 ft 138 kts 199°
2026-05-04 19:49 36.18918 -86.63700 1729 ft 136 kts 200°
2026-05-04 19:49 36.18014 -86.64063 1537 ft 137 kts 198°
2026-05-04 19:50 36.17129 -86.64417 1358 ft 134 kts 199°
2026-05-04 19:50 36.16226 -86.64774 1219 ft 135 kts 198°
2026-05-04 19:50 36.15340 -86.65115 1071 ft 134 kts 198°
2026-05-04 19:50 36.14471 -86.65489 851 ft 128 kts 201°
2026-05-04 19:51 36.13622 -86.65805 647 ft 130 kts 202°
2026-05-04 19:51 36.12990 -86.66066 584 ft 118 kts 199°